Location: Gerlach
(40.6516°N, 119.3568°W)
Time: 05:45:50
(UTC-07:00)

Explorer 11/Cluster Stage 4 - Pass Details

Date: 05 February 2023
Orbit: 466 x 1241 km, 28.8° (Epoch: 02 April)

Event Time Altitude Azimuth Distance (km) Brightness Sun altitude
Exits shadow 03:12:04 16° 132° (SE) 2,646 9.4 -43.9°
Drops below altitude 10° 03:14:42 10° 115° (ESE) 3,145 10.0 -43.4°
Sets 03:18:39 0° 99° (E) 4,159 11.0 -42.7°
